When you browse on this site, cookies collect data to enhance your experience and personalize the content and advertising you see.
Visit our Privacy Policy to learn more. By continuing to use the site, you agree to this use of cookies and data.
  • In United Kingdom
  • List of Countries
  • For 7 days
  • Water Temperature
  • Satellite Maps
  • Weather Map
  • Weather Widgets
  • user-avatar
    Login

    Hourly Weather Glasgow

    Today, 18 June, Tuesday

    Time Temperature Precipitation Wind Pressure Humidity
    00:00 +8°C° 0 mm 5 mps 755 mmHg 91%
    01:00 +7°C° 0 mm 5 mps 755 mmHg 92%
    02:00 +7°C° 0 mm 5 mps 755 mmHg 92%
    03:00 +7°C° 0 mm 4 mps 755 mmHg 92%
    04:00 +8°C° 0 mm 5 mps 755 mmHg 90%
    05:00 +9°C° 0 mm 5 mps 755 mmHg 87%
    06:00 +10°C° 0 mm 5 mps 754 mmHg 84%
    07:00 +13°C° 0 mm 6 mps 754 mmHg 79%
    08:00 +14°C° 0 mm 7 mps 754 mmHg 74%
    09:00 +15°C° 0 mm 7 mps 754 mmHg 69%
    10:00 +15°C° 0 mm 7 mps 754 mmHg 68%
    11:00 +15°C° 0 mm 7 mps 754 mmHg 66%
    12:00 +15°C° 0 mm 7 mps 754 mmHg 65%
    13:00 +16°C° 0 mm 7 mps 754 mmHg 65%
    14:00 +16°C° 0 mm 7 mps 754 mmHg 65%
    15:00 +17°C° 0 mm 7 mps 754 mmHg 65%
    16:00 +16°C° 0 mm 6 mps 754 mmHg 68%
    17:00 +16°C° 0 mm 6 mps 754 mmHg 70%
    18:00 +16°C° 0 mm 6 mps 754 mmHg 73%
    19:00 +14°C° 0 mm 6 mps 754 mmHg 78%
    20:00 +12°C° 0 mm 5 mps 755 mmHg 83%
    21:00 +10°C° 0 mm 5 mps 755 mmHg 89%
    22:00 +10°C° 0 mm 4 mps 755 mmHg 90%
    23:00 +8°C° 0 mm 4 mps 755 mmHg 90%

    Tomorrow, 19 June, Wednesday

    Time Temperature Precipitation Wind Pressure Humidity
    00:00 +8°C° 0 mm 4 mps 755 mmHg 91%
    01:00 +8°C° 0 mm 3 mps 754 mmHg 91%
    02:00 +8°C° 0 mm 3 mps 754 mmHg 90%
    03:00 +8°C° 0 mm 2 mps 754 mmHg 90%
    04:00 +9°C° 0 mm 3 mps 754 mmHg 87%
    05:00 +10°C° 0 mm 3 mps 754 mmHg 84%
    06:00 +11°C° 0 mm 3 mps 753 mmHg 82%
    07:00 +13°C° 0 mm 3 mps 753 mmHg 75%
    08:00 +14°C° 0 mm 4 mps 753 mmHg 69%
    09:00 +17°C° 0 mm 4 mps 753 mmHg 62%
    10:00 +16°C° 0 mm 5 mps 753 mmHg 63%
    11:00 +17°C° 0 mm 5 mps 753 mmHg 64%
    12:00 +17°C° 0 mm 6 mps 753 mmHg 65%
    13:00 +17°C° 0.3 mm 6 mps 752 mmHg 69%
    14:00 +16°C° 0.3 mm 6 mps 752 mmHg 73%
    15:00 +16°C° 0.3 mm 6 mps 752 mmHg 77%
    16:00 +15°C° 0.4 mm 5 mps 752 mmHg 80%
    17:00 +14°C° 0.4 mm 5 mps 752 mmHg 84%
    18:00 +13°C° 0.4 mm 4 mps 752 mmHg 88%
    19:00 +12°C° 0.1 mm 4 mps 752 mmHg 89%
    20:00 +11°C° 0.1 mm 3 mps 752 mmHg 90%
    21:00 +10°C° 0.1 mm 3 mps 752 mmHg 92%
    22:00 +10°C° 0 mm 3 mps 752 mmHg 90%
    23:00 +10°C° 0 mm 3 mps 752 mmHg 88%

    Day after tomorrow, 20 June, Thursday

    Time Temperature Precipitation Wind Pressure Humidity
    00:00 +10°C° 0 mm 3 mps 752 mmHg 86%
    01:00 +9°C° 0 mm 3 mps 751 mmHg 87%
    02:00 +8°C° 0 mm 4 mps 751 mmHg 89%
    03:00 +7°C° 0 mm 4 mps 751 mmHg 90%
    04:00 +8°C° 0 mm 4 mps 751 mmHg 89%
    05:00 +8°C° 0 mm 5 mps 751 mmHg 88%
    06:00 +9°C° 0 mm 5 mps 751 mmHg 87%
    07:00 +10°C° 0 mm 5 mps 751 mmHg 80%
    08:00 +13°C° 0 mm 6 mps 751 mmHg 73%
    09:00 +14°C° 0 mm 6 mps 751 mmHg 66%
    10:00 +14°C° 0.3 mm 6 mps 751 mmHg 67%
    11:00 +15°C° 0.3 mm 6 mps 752 mmHg 68%
    12:00 +15°C° 0.3 mm 6 mps 752 mmHg 70%
    13:00 +15°C° 0.8 mm 5 mps 752 mmHg 71%
    14:00 +15°C° 0.8 mm 4 mps 752 mmHg 73%
    15:00 +16°C° 0.8 mm 3 mps 752 mmHg 75%
    16:00 +14°C° 0.9 mm 3 mps 753 mmHg 78%
    17:00 +14°C° 0.9 mm 2 mps 753 mmHg 81%
    18:00 +14°C° 0.9 mm 2 mps 753 mmHg 84%
    19:00 +12°C° 0.2 mm 2 mps 754 mmHg 84%
    20:00 +10°C° 0.2 mm 2 mps 755 mmHg 85%
    21:00 +8°C° 0.2 mm 2 mps 755 mmHg 85%
    22:00 +8°C° 0 mm 3 mps 756 mmHg 86%
    23:00 +6°C° 0 mm 4 mps 756 mmHg 87%

    21 June, Friday

    Time Temperature Precipitation Wind Pressure Humidity
    00:00 +5°C° 0 mm 5 mps 756 mmHg 88%
    01:00 +5°C° 0 mm 5 mps 756 mmHg 88%
    02:00 +4°C° 0 mm 4 mps 757 mmHg 88%
    03:00 +4°C° 0 mm 4 mps 757 mmHg 88%
    04:00 +5°C° 0 mm 4 mps 757 mmHg 86%
    05:00 +7°C° 0 mm 3 mps 757 mmHg 84%
    06:00 +8°C° 0 mm 2 mps 758 mmHg 82%
    07:00 +10°C° 0 mm 2 mps 758 mmHg 76%
    08:00 +11°C° 0 mm 3 mps 758 mmHg 70%
    09:00 +12°C° 0 mm 3 mps 759 mmHg 63%
    10:00 +13°C° 0.2 mm 3 mps 759 mmHg 65%
    11:00 +13°C° 0.2 mm 4 mps 759 mmHg 66%
    12:00 +14°C° 0.2 mm 4 mps 759 mmHg 67%
    13:00 +14°C° 0.4 mm 4 mps 759 mmHg 70%
    14:00 +14°C° 0.4 mm 4 mps 759 mmHg 73%
    15:00 +14°C° 0.4 mm 4 mps 759 mmHg 76%
    16:00 +13°C° 0.4 mm 4 mps 759 mmHg 78%
    17:00 +13°C° 0.4 mm 3 mps 759 mmHg 81%
    18:00 +12°C° 0.4 mm 3 mps 759 mmHg 83%
    19:00 +12°C° 0.2 mm 3 mps 759 mmHg 84%
    20:00 +11°C° 0.2 mm 3 mps 760 mmHg 86%
    21:00 +10°C° 0.2 mm 2 mps 760 mmHg 87%
    22:00 +9°C° 0 mm 3 mps 760 mmHg 88%
    23:00 +8°C° 0 mm 3 mps 760 mmHg 89%

    22 June, Saturday

    Time Temperature Precipitation Wind Pressure Humidity
    00:00 +6°C° 0 mm 4 mps 760 mmHg 91%
    01:00 +5°C° 0 mm 4 mps 761 mmHg 91%
    02:00 +5°C° 0 mm 4 mps 761 mmHg 91%
    03:00 +5°C° 0 mm 4 mps 761 mmHg 91%
    04:00 +7°C° 0 mm 3 mps 761 mmHg 88%
    05:00 +8°C° 0 mm 3 mps 761 mmHg 86%
    06:00 +9°C° 0 mm 3 mps 761 mmHg 84%
    07:00 +11°C° 0 mm 3 mps 762 mmHg 75%
    08:00 +13°C° 0 mm 2 mps 762 mmHg 65%
    09:00 +15°C° 0 mm 2 mps 762 mmHg 56%
    10:00 +15°C° 0.2 mm 2 mps 762 mmHg 60%
    11:00 +14°C° 0.2 mm 3 mps 762 mmHg 63%
    12:00 +14°C° 0.2 mm 3 mps 762 mmHg 67%
    13:00 +14°C° 0.4 mm 3 mps 762 mmHg 70%
    14:00 +14°C° 0.4 mm 3 mps 762 mmHg 74%
    15:00 +14°C° 0.4 mm 3 mps 762 mmHg 77%
    16:00 +14°C° 0.4 mm 3 mps 763 mmHg 79%
    17:00 +14°C° 0.4 mm 3 mps 763 mmHg 80%
    18:00 +13°C° 0.4 mm 3 mps 763 mmHg 82%
    19:00 +13°C° 0.1 mm 2 mps 763 mmHg 83%
    20:00 +13°C° 0.1 mm 2 mps 764 mmHg 85%
    21:00 +12°C° 0.1 mm 1 mps 764 mmHg 87%
    22:00 +10°C° 0 mm 2 mps 764 mmHg 88%
    23:00 +9°C° 0 mm 2 mps 765 mmHg 89%

    23 June, Sunday

    Time Temperature Precipitation Wind Pressure Humidity
    00:00 +9°C° 0 mm 2 mps 765 mmHg 90%
    01:00 +8°C° 0 mm 2 mps 765 mmHg 91%
    02:00 +8°C° 0 mm 2 mps 765 mmHg 92%
    03:00 +7°C° 0 mm 2 mps 765 mmHg 92%
    04:00 +8°C° 0 mm 2 mps 765 mmHg 91%
    05:00 +9°C° 0 mm 2 mps 766 mmHg 90%
    06:00 +10°C° 0 mm 2 mps 766 mmHg 89%
    07:00 +12°C° 0 mm 2 mps 766 mmHg 84%
    08:00 +13°C° 0 mm 2 mps 766 mmHg 79%
    09:00 +14°C° 0 mm 1 mps 767 mmHg 75%
    10:00 +14°C° 0.1 mm 2 mps 767 mmHg 76%
    11:00 +14°C° 0.1 mm 2 mps 767 mmHg 78%
    12:00 +13°C° 0.1 mm 3 mps 767 mmHg 80%
    13:00 +12°C° 0.1 mm 3 mps 767 mmHg 81%
    14:00 +13°C° 0.1 mm 2 mps 767 mmHg 81%
    15:00 +13°C° 0.1 mm 2 mps 767 mmHg 82%
    16:00 +13°C° 0 mm 2 mps 768 mmHg 81%
    17:00 +13°C° 0 mm 2 mps 768 mmHg 80%
    18:00 +13°C° 0 mm 2 mps 768 mmHg 79%
    19:00 +12°C° 0 mm 2 mps 768 mmHg 82%
    20:00 +10°C° 0 mm 2 mps 768 mmHg 84%
    21:00 +10°C° 0 mm 1 mps 769 mmHg 87%
    22:00 +10°C° 0 mm 1 mps 769 mmHg 86%
    23:00 +10°C° 0 mm 1 mps 769 mmHg 85%
    Show more